Home > Weather > Long Beach > Past weeks

Flag for USA Past Weather in Long Beach, California, USA — Yesterday and Last 2 Weeks

Now
61 °F

Partly sunny.


Feels Like: 61 °F
Forecast: 58 / 67 °F
Wind: 5 mph from Southeast

Location: Long Beach Airport

Current Time: May 24, 2016 at 8:58:31 AM

Latest Report: May 24, 2016 at 7:53 AM


Visibility: 10 mi

Pressure: 29.96 "Hg

Humidity: 70%

Dew Point: 51 °F

Location of Long BeachLocation

Past Weather in Long Beach — Graph

°F

Long Beach Temperature Yesterday

Maximum temperature yesterday: 67 °F (at 12:53 PM)
Minimum temperature yesterday: 57 °F (at 3:53 AM)
Average temperature yesterday: 62 °F

High & Low Weather Summary for the Past Weeks

 TemperatureHumidityPressure
High74 °F (May 11, 1:53 PM)93% (May 13, 2:53 AM)30.06 "Hg (May 13, 2:53 AM)
Low55 °F (May 22, 5:53 AM)38% (May 22, 5:53 PM)29.82 "Hg (May 19, 5:53 PM)
Average64 °F71%29.95 "Hg
* Reported May 9 6:53 AM — May 24 6:53 AM, Long Beach, Weather by CustomWeather, © 2016

Note: Actual official high and low records may vary slightly from our data, if they occured in-between our weather recording intervals... More about our weather records

Advertising

Long Beach Weather History for the Previous 24 Hours

Scroll right to see more
 ConditionsComfort  
Time TempWeatherWind HumidityBarometerVisibility
6:53 AM
Tue, May 24
60 °FScattered clouds.3 mph75%29.95 "Hg10 mi
5:53 AM59 °FClear.No wind75%29.93 "Hg10 mi
4:53 AM60 °FPassing clouds.5 mph72%29.93 "Hg10 mi
3:53 AM58 °FPassing clouds.No wind81%29.92 "Hg10 mi
2:53 AM59 °FPassing clouds.3 mph78%29.92 "Hg10 mi
1:53 AM59 °FClear.No wind78%29.92 "Hg10 mi
12:53 AM59 °FClear.5 mph78%29.92 "Hg10 mi
11:53 PM
Mon, May 23
60 °FPassing clouds.5 mph75%29.93 "Hg10 mi
10:53 PM61 °FPassing clouds.8 mph70%29.93 "Hg10 mi
9:53 PM62 °FOvercast.6 mph73%29.92 "Hg10 mi
9:00 PM62 °FMostly cloudy.3 mph73%29.91 "Hg10 mi
7:53 PM64 °FScattered clouds.10 mph68%29.88 "Hg10 mi
6:53 PM66 °FPassing clouds.10 mph63%29.87 "Hg10 mi
5:53 PM67 °FSunny.10 mph59%29.87 "Hg10 mi
4:53 PM66 °FSunny.8 mph59%29.88 "Hg10 mi
3:53 PM66 °FSunny.9 mph59%29.89 "Hg10 mi
2:53 PM66 °FSunny.10 mph56%29.91 "Hg10 mi
1:53 PM66 °FSunny.13 mph56%29.93 "Hg10 mi
12:53 PM67 °FSunny.8 mph57%29.94 "Hg10 mi
11:53 AM66 °FPassing clouds.10 mph56%29.95 "Hg10 mi
10:53 AM66 °FScattered clouds.15 mph59%29.95 "Hg10 mi
10:00 AM66 °FScattered clouds.9 mph61%29.95 "Hg10 mi
8:53 AM63 °FOvercast.7 mph65%29.95 "Hg10 mi
Weather by CustomWeather, © 2016

See weather overviewHow to use our weather pages